ORBCOMM FM19 [+]

Last updated on Fri Dec 29 2023 00:02:53 GMT+0000 (Coordinated Universal Time)

1 25415U 98046C 23361.65839113 .00001822 00000+0 68171-3 0 9993 2 25415 44.9929 200.4356 0003524 94.1646 16.2798 14.35100029326908
UTC large
Height (km)
Speed (km/s)
/
Latitude / Longitude
Inclination (degrees)
Orbital Period (minutes)
Azimuth
Elevation
Range (km)
Doppler Factor

Next 0 passes for location: London (51.5072 / 0.1276)

Sorry there are no passes over London.